OE5RBO Weather Reports


Display with metric or nautical units.
time (UTC)temp
F
wind
direction
speed
MPH
gust
MPH
rain 1hr
in
rain 24hr
in
rain mn
in
humidity
%
barometer
mb
20260508091116 62 288 4.0 10.0 0.00 0.00 0.00 74 1016.1
20260508090116 64 288 1.0 9.0 0.00 0.00 0.00 75 1015.9
20260508085115 64 346 2.0 6.0 0.00 0.00 0.00 73 1016.1
20260508084115 64 353 1.0 4.0 0.00 0.00 0.00 74 1016.1
20260508083115 64 347 1.0 5.0 0.00 0.00 0.00 76 1015.7
20260508082114 64 208 1.0 4.0 0.00 0.00 0.00 76 1016.2
20260508081114 65 288 2.0 7.0 0.00 0.00 0.00 75 1016.4
20260508080114 65 293 1.0 6.0 0.00 0.00 0.00 75 1016.3
20260508074113 65 219 1.0 3.0 0.00 0.00 0.00 76 1016.3
20260508073113 63 68 0.0 1.0 0.00 0.00 0.00 81 1016.3
20260508071112 60 149 0.0 2.0 0.00 0.00 0.00 87 1016.4
20260508065111 53 207 3.0 4.0 0.00 0.00 0.00 96 1016.3
20260508064111 52 204 2.0 4.0 0.00 0.00 0.00 97 1016.2
20260508063111 51 195 3.0 5.0 0.00 0.00 0.00 98 1016.1
20260508062110 51 205 4.0 6.0 0.00 0.00 0.00 97 1016.1
20260508061110 55 167 0.0 2.0 0.00 0.00 0.00 89 1015.9
20260508055109 55 0 0.0 0.0 0.00 0.00 0.00 97 1015.9
20260508054109 52 0 0.0 0.0 0.00 0.00 0.00 99 1016.1
20260508053108 51 0 0.0 0.0 0.00 0.00 0.00 100 1015.9
20260508052108 49 0 0.0 0.0 0.00 0.00 0.00 100 1015.8
20260508051108 46 0 0.0 0.0 0.00 0.00 0.00 100 1015.9
20260508045107 43 200 0.0 3.0 0.00 0.00 0.00 100 1015.7
20260508044106 43 0 0.0 0.0 0.00 0.00 0.00 100 1015.7
20260508041105 43 0 0.0 0.0 0.00 0.00 0.00 100 1015.5
20260508040105 44 27 2.0 3.0 0.00 0.00 0.00 100 1015.4
20260508035105 43 353 0.0 1.0 0.00 0.00 0.00 100 1015.4
20260508034104 43 0 0.0 0.0 0.00 0.00 0.00 100 1015.4
20260508033104 43 208 1.0 3.0 0.00 0.00 0.00 100 1015.3
20260508031103 44 0 0.0 0.0 0.00 0.00 0.00 100 1015.2
20260508030103 44 0 0.0 0.0 0.00 0.00 0.00 100 1015.1
20260508025102 44 0 0.0 0.0 0.00 0.00 0.00 100 1015.1
20260508024102 45 0 0.0 0.0 0.00 0.00 0.00 100 1015.2
20260508023102 45 0 0.0 0.0 0.00 0.00 0.00 100 1015.2
20260508022101 46 0 0.0 0.0 0.00 0.00 0.00 100 1015.1
20260508021101 46 45 0.0 3.0 0.00 0.00 0.00 100 1015.1
20260508020101 46 179 0.0 1.0 0.00 0.00 0.00 100 1015.2
20260508013059 47 0 0.0 0.0 0.00 0.00 0.00 100 1015.5
20260508012059 47 343 0.0 1.0 0.00 0.00 0.00 100 1015.5
20260508011059 47 44 1.0 2.0 0.00 0.00 0.00 100 1015.6
20260508010058 47 51 2.0 3.0 0.00 0.00 0.00 100 1015.6
20260508005058 48 0 0.0 0.0 0.00 0.00 0.00 100 1015.7
20260508004058 48 149 1.0 5.0 0.00 0.00 0.00 100 1015.7
20260508003057 49 44 0.0 1.0 0.00 0.00 0.00 100 1015.7
20260508002057 49 340 0.0 1.0 0.00 0.00 0.00 100 1015.8
20260508001057 50 0 0.0 0.0 0.00 0.00 0.00 100 1015.7
20260508000056 50 39 1.0 2.0 0.00 0.00 0.00 100 1015.7
20260507235056 50 0 0.0 0.0 0.00 0.00 0.00 100 1015.9
20260507234055 50 0 0.0 0.0 0.00 0.00 0.00 100 1016.1
20260507230054 50 0 0.0 0.0 0.00 0.00 0.02 99 1016.3
20260507224053 51 0 0.0 0.0 0.00 0.00 0.02 99 1016.4
20260507223053 51 0 0.0 0.0 0.00 0.00 0.02 98 1016.4
20260507222052 52 0 0.0 0.0 0.00 0.00 0.02 98 1016.5
20260507221052 52 0 0.0 0.0 0.00 0.00 0.02 98 1016.3
20260507220052 52 59 1.0 2.0 0.00 0.00 0.02 98 1016.3
20260507215052 52 48 3.0 4.0 0.00 0.00 0.02 98 1016.3
20260507214051 52 0 0.0 0.0 0.00 0.00 0.02 98 1016.4
20260507213051 53 0 0.0 0.0 0.00 0.00 0.02 98 1016.4
20260507212050 53 215 0.0 2.0 0.00 0.00 0.02 98 1016.3
20260507210050 53 195 1.0 3.0 0.00 0.00 0.02 98 1016.1
20260507205049 53 0 0.0 0.0 0.00 0.00 0.02 97 1016.1
20260507204049 53 0 0.0 0.0 0.00 0.00 0.02 97 1015.9
20260507203049 54 0 0.0 0.0 0.00 0.00 0.02 97 1015.9
20260507202048 54 158 0.0 2.0 0.00 0.00 0.02 96 1015.9
20260507201048 54 195 0.0 2.0 0.00 0.00 0.02 96 1015.8
20260507200047 54 166 1.0 3.0 0.00 0.00 0.02 96 1015.8
20260507194047 55 174 0.0 2.0 0.00 0.00 0.02 96 1015.4
20260507193046 55 201 1.0 2.0 0.00 0.00 0.02 95 1015.2
20260507192046 55 0 0.0 0.0 0.00 0.00 0.02 94 1015.1
20260507191046 55 52 0.0 1.0 0.00 0.00 0.02 92 1014.9
20260507190045 55 27 0.0 1.0 0.00 0.00 0.02 91 1014.7
20260507185045 56 160 1.0 3.0 0.00 0.00 0.02 90 1014.7
20260507182044 57 25 1.0 2.0 0.00 0.00 0.02 86 1014.5
20260507181043 58 323 0.0 2.0 0.00 0.00 0.02 82 1014.4
20260507180043 58 6 0.0 3.0 0.00 0.00 0.02 82 1014.4
20260507175043 59 288 1.0 4.0 0.00 0.00 0.02 79 1014.2
20260507174042 60 350 0.0 3.0 0.00 0.00 0.02 78 1014.0
20260507173042 60 288 1.0 4.0 0.00 0.00 0.02 78 1013.9
20260507172041 61 219 1.0 3.0 0.00 0.00 0.02 74 1013.8
20260507171041 61 219 2.0 9.0 0.00 0.00 0.02 75 1013.7
20260507170041 60 288 1.0 6.0 0.00 0.00 0.02 78 1013.6
20260507164040 60 349 2.0 9.0 0.00 0.00 0.02 77 1013.6
20260507163040 60 288 4.0 8.0 0.00 0.00 0.02 77 1013.5
20260507162039 60 288 5.0 9.0 0.00 0.00 0.02 75 1013.5
20260507161039 61 347 3.0 6.0 0.00 0.00 0.02 73 1013.5
20260507160038 61 356 4.0 9.0 0.00 0.00 0.02 74 1013.6
20260507155038 61 288 4.0 10.0 0.00 0.00 0.02 75 1013.5
20260507154038 64 288 1.0 9.0 0.00 0.00 0.02 70 1013.5
20260507153038 64 288 2.0 8.0 0.00 0.00 0.02 68 1013.5
20260507152037 64 288 2.0 9.0 0.00 0.00 0.02 69 1013.4
20260507151037 62 347 4.0 9.0 0.00 0.00 0.02 73 1013.4
20260507150036 63 252 2.0 6.0 0.00 0.00 0.02 70 1013.4
20260507144036 62 232 2.0 9.0 0.00 0.00 0.02 71 1013.3
20260507143036 62 200 3.0 12.0 0.00 0.00 0.02 73 1013.4
20260507142035 63 211 3.0 11.0 0.00 0.00 0.02 69 1013.4
20260507141035 63 288 3.0 9.0 0.00 0.00 0.02 70 1013.5
20260507140034 63 198 3.0 10.0 0.00 0.00 0.02 74 1013.4
20260507135034 62 212 3.0 10.0 0.00 0.00 0.02 78 1013.3
20260507133033 61 288 1.0 9.0 0.00 0.00 0.02 84 1013.3
20260507131033 58 194 3.0 10.0 0.00 0.00 0.02 87 1013.5
20260507130032 60 200 5.0 10.0 0.00 0.00 0.01 78 1013.2
20260507124031 62 211 4.0 10.0 0.00 0.00 0.01 81 1013.2
20260507123031 61 193 2.0 6.0 0.00 0.00 0.01 81 1013.1
20260507122030 61 142 3.0 6.0 0.00 0.00 0.01 79 1013.1
20260507121030 59 224 3.0 7.0 0.00 0.00 0.01 84 1013.3
20260507115030 55 201 2.0 5.0 0.00 0.00 0.01 95 1013.5
20260507114029 54 194 2.0 7.0 0.00 0.00 0.00 95 1013.5
20260507113029 55 180 4.0 7.0 0.00 0.00 0.00 92 1013.5
20260507112029 56 198 3.0 7.0 0.00 0.00 0.00 90 1013.5
20260507111028 57 215 3.0 6.0 0.00 0.00 0.00 87 1013.4
20260507105027 59 207 4.0 9.0 0.00 0.00 0.00 82 1013.5
20260507103026 57 177 4.0 6.0 0.00 0.00 0.00 83 1013.6
20260507102026 56 198 4.0 10.0 0.00 0.00 0.00 84 1013.6
20260507101026 57 190 3.0 9.0 0.00 0.00 0.00 84 1013.6
20260507100025 56 193 5.0 8.0 0.00 0.00 0.00 84 1013.7
20260507094025 58 201 4.0 8.0 0.00 0.00 0.00 84 1013.5
20260507092024 57 203 4.0 9.0 0.00 0.00 0.00 83 1013.4